Location: Andiroba
(19.8650°S, 43.9258°W)
Time: 01:40:53
(UTC+00:00)

Cosmos 468 - Pass Details

Date: 15 June 2024
Orbit: 759 x 782 km, 74.0° (Epoch: 24 July)

Event Time Altitude Azimuth Distance (km) Brightness Sun altitude
Rises 07:34:57 0° 343° (NNW) 3,250 7.8 -25.8°
Reaches altitude 10° 07:37:20 10° 341° (NNW) 2,329 7.0 -25.2°
Maximum altitude 07:42:37 74° 256° (WSW) 819 4.4 -24.0°
Drops below altitude 10° 07:47:58 10° 171° (S) 2,350 6.9 -22.9°
Sets 07:50:23 0° 169° (SSE) 3,282 7.7 -22.3°
